Starlink 4666

operational
NORAD ID: 53789 Int'l Des: 2022-111 Owner: SPXS Country: US Constellation: starlink
LEOCIRCULAR

About Starlink 4666

Description loading...

Live Position

Loading 3D Globe...

Upcoming Passes

Altitude History

Altitude vs Time

uPlot chart will show altitude changes over time

Two-Line Element Set

1 53789U 22111S 25342.96437518 .00004805 00000-0 31975-3 0 9993
2 53789 53.2188 321.1261 0001322 83.5906 276.5237 15.08842613179991
Epoch: Dec 8, 2025 • Age: 14 hours

Current Status

Altitude 540.1 km
Velocity 7.59 km/s
Sub-Earth Point 2.93°N, 40.05°E
Launch Date Sep 11, 2022
Age 3.2 years
Type internet

Technical Details

Classification Payload
Mass 305.00 kg
Dry Mass 290.00 kg
Total Mass 305.00 kg
Length 0.20 m
Diameter 2.80 m
Span 9.00 m
Shape Box + pan
Manufacturer SPXS
Bus Type Starlink
Phase Status In Orbit
Owner/State SPXS/US

Large Constellations

Loading constellations...